Location: Unspecified
(0.0000°N, 0.0000°E)
Time: 21:52:34
(UTC+02:00)

PROBA 2 - Visible Passes

Search period start: 19 September 2014 00:00
Search period end: 29 September 2014 00:00
Orbit: 707 x 726 km, 98.3° (Epoch: 18 September)

Date Brightness Start Highest point End Pass type
(mag) Time Alt. Az. Time Alt. Az. Time Alt. Az.
19 Sep ? 20:11:29 10° NNE 20:16:13 73° ESE 20:20:59 10° S visible
20 Sep ? 20:59:25 10° NNW 21:03:21 26° WNW 21:07:18 10° SW visible
22 Sep ? 20:55:46 10° NNW 20:59:51 29° WNW 21:03:58 10° SW visible
24 Sep ? 20:52:08 10° NNW 20:56:21 32° WNW 21:00:36 10° SW visible
26 Sep ? 20:48:31 10° NNW 20:52:51 36° WNW 20:57:13 10° SW visible
28 Sep ? 20:44:55 10° N 20:49:20 40° WNW 20:53:49 10° SSW visible
